Wind_Speed
18 20 20 19 18 16 17 19 20 22 22 24 31 39 44 46 45 46 47 49 49 49 48 50 47 46 46 47 48 52 48 46 44 36 35 31 33 34 35 36 37 37 37 38 40 43 44 45 45
18 19 20 21 21 20 21 22 23 23 23 22 25 29 37 43 47 49 49 49 49 50 51 51 50 51 52 54 51 47 44 42 38 32 32 33 35 34 33 34 35 35 35 34 35 37 39 41 40
19 19 19 19 20 21 23 24 23 24 26 25 25 26 27 28 34 41 43 45 47 50 51 52 51 52 52 48 46 44 44 39 36 32 33 35 36 35 32 33 34 35 35 33 32 34 35 36 36
18 17 18 19 21 21 22 23 26 26 25 26 29 28 28 28 31 32 35 36 37 38 41 42 43 42 42 43 43 43 42 40 38 39 38 40 38 34 32 31 36 36 34 33 32 31 32 34 35
15 15 15 16 18 19 20 21 22 24 25 26 29 30 30 30 32 33 33 33 34 35 36 37 38 39 40 40 39 41 41 41 41 39 41 40 38 34 32 28 31 37 40 40 37 36 33 33 31
16 17 17 17 17 18 19 20 21 23 24 26 28 30 30 30 31 33 35 35 35 35 35 36 37 40 41 41 42 39 41 44 43 44 41 41 35 33 33 34 36 38 38 40 42 39 37 35 34
17 18 18 16 18 19 20 21 22 23 26 28 29 30 31 29 32 35 36 38 38 39 38 37 38 40 42 44 45 44 46 46 44 45 42 38 36 35 38 40 38 40 40 40 38 40 40 37 36
18 19 18 19 21 21 22 23 25 28 30 32 32 31 32 32 35 33 34 36 36 38 38 38 38 39 40 41 43 43 44 45 45 45 42 41 39 42 42 41 41 37 35 34 33 32 34 36 37
18 21 24 25 24 26 28 28 29 30 32 33 33 34 34 34 36 37 33 33 33 32 31 27 27 27 28 32 32 32 30 34 38 41 42 43 42 38 39 36 34 31 30 29 27 27 27 28 30
18 21 24 28 28 28 32 34 33 34 34 34 33 33 34 33 34 35 33 31 29 28 25 25 23 22 22 22 26 29 30 32 32 31 33 37 37 35 27 29 29 27 27 27 28 30 30 27 26
18 22 27 35 35 32 35 36 37 38 36 34 31 31 31 31 32 30 30 28 25 26 25 26 27 21 20 23 27 30 28 26 26 24 24 24 23 25 28 29 27 22 20 20 22 23 23 22 23
22 24 28 34 39 40 38 37 41 38 33 32 31 29 29 29 30 26 24 24 23 21 26 28 22 21 22 21 25 28 24 21 20 20 20 21 25 28 25 20 21 22 21 19 20 19 18 20 19
24 25 28 34 40 43 43 42 44 41 32 27 25 25 28 29 27 21 23 24 23 22 23 23 24 26 27 26 26 23 24 22 19 20 20 19 17 17 14 17 22 24 26 25 21 23 22 21 21
25 27 31 35 43 44 47 48 50 41 30 27 25 23 26 26 24 20 17 19 19 18 17 17 20 25 25 27 30 24 29 27 25 21 17 16 20 24 26 26 26 29 31 36 37 36 29 22 23
30 32 33 38 46 46 49 50 51 39 29 26 21 19 23 25 23 17 11 8 9 11 13 15 14 18 21 24 24 20 25 32 29 31 30 28 26 29 32 42 41 41 41 44 44 42 40 36 32
32 34 38 43 44 47 51 52 48 35 26 21 17 12 9 14 13 11 9 5 7 7 6 13 8 29 25 26 26 23 22 22 23 32 40 38 37 34 36 44 50 48 49 51 55 48 47 47 45
37 37 41 45 47 51 54 53 42 27 21 14 11 10 7 6 4 5 5 7 8 4 13 15 15 24 31 32 27 27 31 30 29 39 36 43 46 48 51 52 56 58 54 59 55 49 53 55 47
37 36 43 47 50 56 60 52 37 22 19 14 17 18 7 4 6 7 10 12 19 18 15 22 29 29 34 31 30 35 38 45 42 43 46 46 48 53 53 55 60 65 57 62 59 59 60 62 65
39 36 44 49 53 57 58 45 33 22 19 16 18 21 16 14 12 16 20 20 25 28 31 30 32 32 37 42 43 47 45 49 53 55 51 52 53 58 57 59 61 60 62 68 62 66 67 64 49
37 38 45 50 55 59 51 42 33 22 18 20 18 20 20 20 33 32 32 28 20 25 32 37 33 34 40 46 47 53 51 56 55 57 60 62 64 64 62 61 62 64 67 65 65 63 56 55 66
36 39 46 49 54 49 46 39 29 25 18 20 24 26 25 30 30 31 33 34 36 37 39 45 48 48 54 62 59 61 53 56 56 57 62 65 70 71 69 67 67 67 67 64 65 69 64 59 54
36 40 44 49 51 43 42 38 34 27 23 20 22 29 31 31 36 38 35 38 44 49 52 53 52 54 60 61 57 58 54 52 58 60 63 68 71 74 73 72 71 73 68 65 65 67 67 76 58
36 40 42 47 49 41 39 36 34 32 28 23 25 26 28 32 36 41 44 50 54 56 58 60 62 63 56 53 50 50 53 54 59 63 68 71 74 76 76 74 72 73 73 74 70 69 68 64 72
37 38 41 44 46 38 35 32 29 28 27 26 23 22 27 34 37 43 48 53 54 53 48 49 54 50 48 48 50 50 51 56 62 67 71 74 76 77 77 79 80 80 79 80 79 76 75 71 68
37 37 39 43 47 40 34 32 27 27 26 25 24 25 28 31 34 36 40 45 49 50 49 50 51 55 59 62 64 65 66 69 69 72 77 78 80 83 86 85 84 85 86 86 84 84 83 81 77
37 36 39 41 44 42 37 33 32 27 26 25 25 25 27 30 34 37 40 44 49 53 55 57 59 60 62 66 71 76 79 81 84 86 87 88 88 88 88 90 93 95 94 94 92 91 89 88 85
36 36 38 42 44 43 38 35 34 31 29 26 28 31 35 38 41 42 44 46 51 55 59 62 66 70 72 75 79 83 85 88 89 94 93 94 93 93 95 95 93 97 101 102 101 99 94 91 91
36 36 38 38 40 43 43 36 34 35 32 30 33 35 34 36 39 44 45 49 53 57 60 64 68 72 76 79 84 89 91 93 98 101 98 95 93 92 92 95 96 97 95 99 103 104 103 98 95
36 36 39 40 42 44 46 43 36 38 37 37 37 36 36 40 43 47 50 54 58 61 66 71 74 79 82 87 91 95 98 101 101 98 90 80 72 68 69 69 71 73 76 80 86 91 97 98 98
38 38 40 44 45 49 51 50 42 38 40 41 42 41 43 46 50 53 57 60 65 69 74 79 84 87 93 97 100 101 99 96 85 73 66 60 55 52 51 50 52 55 59 63 66 72 80 86 90
Wind_Direction
319 311 308 300 297 302 305 299 296 290 284 273 263 255 251 251 253 254 255 257 260 264 265 268 271 275 279 281 280 283 284 284 280 277 283 295 298 292 291 288 286 282 278 276 273 271 271 272 274
317 315 311 305 296 295 298 300 294 295 286 278 275 267 261 258 258 259 262 264 266 267 270 272 275 278 280 282 284 281 279 276 274 275 281 292 301 296 291 289 287 286 281 277 274 272 272 272 271
319 309 313 311 307 298 295 290 291 291 290 284 274 272 268 267 265 262 262 265 266 268 270 273 275 277 278 278 278 278 279 274 275 277 283 291 296 295 288 285 281 280 280 278 278 279 278 278 276
325 325 320 313 309 307 304 295 291 290 288 288 284 278 275 270 273 270 269 269 270 270 269 269 270 273 274 275 276 278 276 275 276 274 283 291 296 293 290 288 281 276 276 273 270 271 271 273 276
351 348 343 340 331 323 313 308 299 293 290 285 283 279 277 272 272 274 276 277 278 278 279 279 279 280 281 282 281 282 278 276 278 281 286 288 292 287 287 288 285 278 273 271 271 270 269 269 267
10 6 1 359 351 342 333 323 313 304 291 283 279 278 278 278 277 276 274 275 277 278 278 279 280 280 281 281 281 281 278 280 282 284 287 290 287 282 282 282 285 282 278 272 269 268 268 268 268
7 3 360 355 342 337 332 323 316 306 297 290 286 284 281 281 279 275 273 272 272 273 274 274 273 275 277 277 277 280 284 284 284 284 286 285 280 280 286 290 285 284 280 278 277 271 269 269 269
2 0 352 348 346 341 329 326 321 313 303 296 295 288 285 281 277 275 274 273 271 273 274 275 276 276 275 276 277 280 280 280 281 280 282 284 281 286 292 291 286 282 283 282 282 283 279 275 274
357 350 343 340 338 339 334 330 325 320 315 308 299 289 279 275 275 275 276 279 282 286 285 284 280 281 283 282 281 282 286 286 283 282 282 280 283 285 289 284 284 284 284 284 286 287 285 281 280
356 1 356 350 343 344 340 335 328 325 318 314 303 291 283 282 280 280 284 282 283 281 280 275 275 283 293 302 308 300 296 298 295 296 295 287 289 292 293 294 292 292 291 291 294 295 288 291 287
345 348 350 352 348 343 340 333 330 327 319 310 300 292 284 276 274 277 274 279 280 274 269 268 274 283 301 307 316 313 316 311 308 306 301 291 285 287 296 292 287 293 292 289 293 295 296 291 289
344 343 346 352 349 341 338 334 332 328 318 308 297 289 284 278 274 274 276 272 269 267 264 267 277 285 294 302 314 307 306 307 305 292 291 285 287 289 291 296 285 277 277 280 292 291 284 280 279
343 338 339 343 342 340 337 334 334 330 316 303 292 286 283 280 281 278 275 272 267 273 274 281 291 291 293 310 307 296 300 303 316 322 318 315 317 319 315 319 319 318 308 295 298 291 285 273 273
339 336 338 338 338 339 338 334 333 328 319 305 293 286 278 277 277 279 277 282 272 283 290 298 300 302 307 293 291 289 288 285 301 312 326 325 324 316 307 302 301 305 304 301 300 297 298 279 288
336 334 338 337 338 336 333 333 331 326 322 305 293 278 274 276 275 277 261 286 300 313 315 287 295 303 302 301 287 279 288 305 312 311 301 294 297 300 301 296 291 286 289 291 288 289 290 287 283
342 334 339 335 338 334 331 332 329 322 319 305 289 279 278 289 271 241 248 279 316 15 325 11 327 299 291 283 280 263 268 291 304 287 287 282 280 276 282 285 285 282 279 279 277 279 280 280 276
335 336 337 335 335 333 331 330 327 319 314 304 287 262 270 293 164 248 263 262 249 332 349 329 328 305 307 290 271 264 252 241 251 262 269 266 270 271 274 273 274 278 284 285 279 278 276 275 275
332 336 338 335 334 333 330 330 330 314 302 287 273 267 229 239 250 273 265 280 300 289 318 319 306 300 308 311 293 284 269 252 247 253 257 258 257 273 282 278 276 269 270 272 272 277 276 274 277
336 334 334 334 335 333 331 331 326 315 287 278 244 245 237 205 197 237 260 288 303 287 292 291 290 292 311 310 308 304 282 260 259 262 265 257 258 272 275 279 276 276 281 264 270 270 271 277 275
336 333 336 338 336 335 333 331 326 309 282 271 239 245 250 255 269 254 247 245 257 276 275 275 285 289 302 304 304 303 284 278 268 259 261 262 267 270 276 276 278 275 274 270 272 267 273 278 270
329 333 338 338 339 340 336 334 327 310 292 264 254 243 264 271 265 273 280 283 283 282 293 300 302 302 304 306 301 301 291 285 282 276 272 270 270 274 276 274 268 269 274 274 271 268 263 268 273
333 336 339 340 343 344 343 341 335 326 306 271 253 256 264 271 282 288 285 292 298 306 308 304 299 297 299 302 301 296 291 286 286 286 282 279 277 279 279 275 273 268 269 273 271 269 264 260 265
335 340 339 344 346 346 344 347 350 343 337 313 277 266 261 274 279 286 289 292 292 294 296 296 297 301 297 295 294 290 288 287 287 285 287 288 281 277 274 273 272 270 270 267 268 268 269 263 259
336 338 340 346 347 343 341 346 350 349 348 342 333 315 302 293 295 290 295 295 294 297 298 303 301 295 295 293 294 293 291 291 291 290 285 278 277 277 275 273 271 269 267 266 264 265 266 266 262
337 338 339 347 345 345 337 336 337 335 336 334 330 323 317 315 313 311 306 304 303 302 301 299 296 297 296 294 294 294 294 292 290 290 289 286 281 278 274 270 268 269 267 264 264 264 264 262 260
334 334 339 344 343 341 335 328 329 326 322 321 319 318 317 316 314 311 308 306 304 305 305 304 302 300 297 295 296 296 297 297 296 293 290 288 287 283 277 272 270 267 265 262 261 261 262 262 262
331 334 336 341 343 343 330 316 319 316 312 312 312 313 312 312 310 310 310 309 307 307 307 305 303 302 300 297 296 295 293 291 292 293 293 292 289 285 282 277 271 267 264 262 262 260 258 259 259
332 332 335 337 338 339 337 319 302 304 298 296 306 306 306 305 300 301 304 306 308 306 304 301 299 299 297 294 295 293 294 296 295 295 293 291 288 284 280 277 274 272 268 263 260 259 259 257 257
331 330 332 336 335 336 335 331 311 294 294 288 293 299 303 306 306 307 307 309 309 306 305 305 302 300 299 298 298 298 299 299 296 296 295 293 290 287 283 281 278 275 272 269 265 261 257 256 255
329 328 330 333 334 334 335 333 325 313 296 292 291 295 304 311 314 312 311 309 307 306 306 307 305 303 303 304 303 303 302 300 300 300 298 298 293 290 287 289 287 284 280 275 270 266 262 257 256
Height
10923 10922 10920 10918 10919 10918 10916 10915 10913 10912 10912 10912 10911 10911 10911 10912 10913 10913 10912 10913 10914 10914 10914 10913 10912 10912 10911 10909 10907 10905 10902 10900 10897 10896 10895 10893 10891 10888 10886 10884 10883 10881 10881 10881 10881 10880 10879 10877 10876
10921 10919 10917 10916 10915 10915 10914 10912 10909 10908 10907 10906 10904 10904 10904 10906 10905 10904 10904 10905 10906 10905 10904 10904 10905 10903 10903 10901 10899 10897 10895 10894 10892 10889 10887 10886 10884 10880 10878 10876 10875 10873 10872 10872 10871 10871 10870 10868 10868
10918 10916 10915 10913 10911 10910 10909 10907 10905 10903 10902 10900 10898 10898 10898 10899 10896 10896 10896 10896 10898 10899 10898 10897 10896 10895 10895 10894 10891 10889 10888 10887 10885 10883 10881 10879 10877 10873 10870 10868 10867 10866 10866 10865 10865 10865 10863 10862 10861
10915 10913 10911 10910 10908 10906 10903 10902 10900 10897 10895 10893 10891 10891 10892 10893 10889 10889 10889 10888 10889 10890 10890 10890 10888 10887 10886 10884 10884 10883 10881 10879 10877 10876 10873 10870 10868 10865 10863 10861 10859 10858 10857 10857 10856 10855 10854 10854 10854
10913 10911 10909 10907 10905 10902 10899 10897 10895 10891 10889 10887 10884 10884 10884 10885 10885 10884 10883 10882 10881 10881 10881 10881 10880 10879 10878 10877 10876 10875 10874 10871 10869 10866 10863 10861 10860 10858 10856 10853 10851 10849 10847 10846 10846 10846 10845 10844 10843
10913 10910 10909 10906 10903 10899 10896 10894 10891 10887 10883 10880 10878 10878 10879 10880 10880 10878 10876 10874 10873 10872 10873 10872 10872 10871 10870 10868 10866 10865 10863 10861 10860 10858 10856 10854 10852 10851 10848 10846 10843 10841 10838 10837 10837 10837 10837 10836 10836
10913 10910 10908 10905 10901 10898 10894 10890 10885 10881 10877 10874 10873 10873 10872 10873 10870 10868 10867 10866 10864 10863 10863 10863 10863 10863 10862 10861 10859 10857 10855 10853 10852 10850 10848 10847 10845 10844 10842 10839 10837 10834 10832 10830 10828 10828 10828 10828 10829
10911 10909 10905 10902 10899 10894 10891 10887 10881 10876 10872 10868 10869 10866 10864 10863 10858 10859 10859 10857 10857 10857 10856 10856 10855 10854 10852 10852 10852 10851 10849 10847 10845 10843 10841 10840 10839 10837 10835 10833 10830 10827 10825 10824 10823 10821 10821 10821 10822
10910 10906 10903 10900 10898 10892 10887 10881 10874 10870 10867 10865 10862 10860 10858 10854 10851 10850 10852 10851 10851 10850 10848 10846 10844 10843 10844 10844 10843 10841 10840 10838 10837 10835 10834 10832 10830 10828 10826 10823 10822 10820 10819 10818 10818 10816 10815 10814 10814
10908 10903 10900 10897 10894 10890 10882 10875 10868 10865 10860 10858 10854 10851 10849 10847 10845 10843 10845 10844 10843 10842 10841 10838 10836 10837 10836 10835 10834 10832 10829 10829 10828 10827 10826 10824 10823 10822 10820 10818 10816 10815 10813 10813 10812 10812 10810 10809 10808
10906 10901 10898 10894 10889 10885 10878 10869 10864 10859 10855 10850 10846 10843 10840 10838 10835 10838 10833 10835 10837 10835 10834 10832 10831 10830 10829 10827 10825 10825 10824 10823 10823 10822 10820 10818 10816 10815 10813 10810 10810 10808 10805 10804 10803 10802 10802 10802 10802
10903 10900 10895 10891 10885 10878 10872 10864 10859 10853 10848 10843 10839 10835 10832 10829 10827 10830 10831 10829 10828 10827 10826 10826 10826 10825 10823 10821 10822 10821 10819 10817 10816 10815 10812 10810 10808 10806 10804 10802 10800 10799 10797 10796 10795 10793 10792 10793 10793
10900 10897 10892 10888 10882 10874 10864 10857 10853 10847 10840 10835 10832 10829 10825 10821 10822 10828 10824 10823 10823 10822 10822 10822 10821 10820 10817 10820 10819 10816 10814 10813 10813 10811 10808 10805 10802 10800 10797 10795 10794 10793 10794 10792 10789 10787 10784 10783 10785
10897 10893 10889 10884 10877 10868 10858 10849 10845 10839 10835 10830 10826 10823 10818 10818 10817 10818 10820 10820 10821 10820 10819 10818 10817 10815 10815 10815 10815 10812 10807 10805 10805 10804 10802 10801 10796 10792 10789 10785 10782 10782 10781 10781 10782 10780 10778 10776 10777
10894 10890 10885 10879 10871 10862 10853 10845 10838 10831 10827 10824 10821 10818 10814 10812 10811 10815 10815 10817 10817 10817 10814 10813 10813 10812 10814 10812 10809 10806 10801 10798 10796 10795 10793 10789 10783 10779 10777 10775 10771 10768 10768 10769 10770 10770 10769 10767 10768
10891 10885 10880 10874 10866 10857 10848 10841 10832 10826 10821 10820 10817 10814 10812 10809 10807 10811 10811 10813 10814 10815 10814 10810 10806 10805 10811 10808 10805 10802 10800 10800 10795 10792 10785 10782 10777 10774 10771 10768 10763 10760 10761 10759 10757 10758 10759 10759 10758
10886 10880 10874 10866 10860 10852 10843 10835 10828 10821 10815 10815 10813 10811 10811 10809 10806 10806 10808 10809 10809 10809 10809 10806 10805 10806 10806 10800 10796 10796 10793 10788 10784 10778 10774 10773 10768 10764 10761 10756 10751 10751 10746 10746 10746 10742 10745 10748 10746
10882 10876 10870 10863 10854 10843 10833 10825 10822 10815 10813 10813 10811 10808 10808 10808 10806 10805 10805 10805 10804 10804 10800 10803 10803 10801 10796 10793 10791 10788 10784 10778 10772 10768 10763 10760 10756 10753 10750 10744 10741 10737 10738 10734 10732 10730 10729 10731 10734
10880 10874 10866 10858 10850 10840 10826 10819 10816 10813 10809 10808 10808 10806 10805 10803 10802 10803 10803 10801 10801 10799 10795 10792 10788 10787 10786 10783 10778 10774 10770 10765 10760 10756 10751 10747 10744 10740 10738 10733 10728 10725 10723 10722 10723 10719 10717 10715 10716
10877 10870 10863 10854 10842 10833 10822 10814 10810 10808 10805 10804 10804 10802 10802 10801 10798 10796 10795 10794 10794 10791 10788 10785 10782 10779 10776 10772 10768 10764 10757 10750 10745 10741 10738 10732 10728 10724 10721 10718 10715 10710 10709 10708 10706 10707 10704 10700 10699
10874 10867 10859 10852 10840 10829 10818 10812 10807 10802 10800 10799 10800 10800 10799 10797 10794 10792 10790 10788 10786 10782 10779 10776 10772 10769 10764 10760 10753 10748 10742 10735 10731 10728 10722 10717 10711 10708 10705 10700 10699 10696 10692 10689 10688 10688 10692 10691 10685
10869 10863 10855 10847 10838 10826 10816 10809 10804 10801 10798 10797 10796 10797 10795 10791 10789 10786 10783 10779 10774 10769 10767 10765 10763 10760 10756 10749 10741 10735 10729 10723 10716 10712 10706 10699 10695 10689 10687 10683 10680 10677 10675 10671 10670 10668 10671 10677 10674
10866 10861 10853 10844 10834 10825 10818 10809 10803 10797 10796 10795 10795 10794 10792 10788 10785 10782 10777 10773 10769 10765 10760 10756 10752 10748 10742 10735 10730 10724 10717 10710 10706 10699 10690 10682 10676 10671 10666 10662 10659 10656 10653 10653 10651 10650 10648 10652 10656
10864 10858 10851 10843 10835 10826 10819 10812 10806 10800 10795 10793 10791 10789 10786 10783 10778 10774 10769 10765 10760 10754 10749 10744 10740 10734 10728 10721 10715 10711 10707 10699 10689 10679 10670 10663 10657 10651 10648 10643 10638 10634 10632 10631 10629 10629 10629 10629 10632
10859 10854 10848 10840 10833 10826 10819 10813 10808 10802 10797 10792 10788 10784 10780 10776 10772 10767 10761 10755 10749 10744 10739 10733 10726 10719 10712 10704 10698 10691 10684 10677 10670 10662 10652 10643 10634 10624 10619 10617 10615 10611 10608 10606 10604 10605 10606 10607 10608
10855 10850 10845 10839 10832 10823 10817 10813 10807 10802 10796 10791 10787 10782 10778 10773 10767 10761 10754 10747 10738 10731 10725 10717 10709 10702 10694 10685 10676 10666 10657 10649 10641 10634 10627 10617 10609 10600 10592 10585 10582 10581 10580 10578 10577 10578 10580 10583 10586
10852 10847 10841 10834 10828 10821 10813 10809 10804 10798 10794 10788 10783 10778 10773 10767 10760 10754 10747 10741 10732 10722 10712 10703 10693 10685 10675 10665 10655 10645 10636 10628 10618 10606 10597 10589 10578 10567 10560 10552 10547 10547 10544 10544 10546 10549 10553 10557 10559
10848 10843 10838 10833 10828 10821 10813 10806 10800 10794 10790 10785 10780 10774 10768 10762 10756 10749 10742 10734 10724 10714 10704 10694 10684 10672 10659 10648 10636 10622 10611 10599 10586 10574 10564 10554 10546 10532 10525 10517 10513 10510 10506 10505 10508 10514 10520 10528 10531
10845 10840 10834 10829 10822 10816 10810 10802 10795 10788 10783 10779 10774 10768 10762 10755 10748 10740 10731 10722 10711 10700 10689 10676 10663 10650 10636 10624 10610 10594 10580 10565 10549 10537 10524 10514 10506 10500 10492 10486 10481 10477 10475 10474 10474 10478 10485 10491 10499
10840 10835 10829 10823 10816 10808 10801 10793 10786 10780 10775 10769 10764 10758 10751 10744 10737 10728 10718 10708 10696 10684 10669 10654 10638 10623 10608 10593 10577 10563 10547 10528 10515 10505 10494 10488 10482 10477 10470 10465 10461 10456 10452 10449 10448 10449 10453 10462 10470